Startseite
Über Mich
AHP4
Galerie
Sehschlangen
Tourenbuch
Bookmarks
Elektronik
Bewertung
Geschichten
[Tagesmessung] [Jahreswerte] [Information]

Messwerte vom 26.02.2021

Die letzten Messwerte von 22:16:48 Uhr:
KategorieMesswert
Temperatur [°C]4
Luftdruck [mBar]1017
Sonneneinstrahlung0
Wind [km/h]3
Niederschlag [l/m²]0
rel.Luftfeucht.91.4%
CO2 [ppm]842

Diagramme
Messwerte vom 26.02.2021
Tagesaggregation
KategorieMinimumMaximumSchnittSumme
Temperatur [°C]4127.8430
Luftdruck [mBar]101110181014.5561
Sonneneinstrahlung24694.5314
Wind [km/h]34
rF [%]56.296.685.28
Niederschlag [l/m²]0.2575
CO2 [ppm]4311269934.1
Einordnung alsVegetationstag

Messungen an benachbarten Tagen: Zur Jahresaggregation 2021
Tabelle aller Messwerte
UhrzeitTemperatur [°C]Luftdruck [mBar]SonneWind [km/h]Regen [l/m²]rF [%]CO2 [ppm]
00:01:49 10 1011 0 1 0 88.8 1249
00:04:49 10 1011 0 0 0 88.4 1250
00:07:51 10 1011 0 5 0 88 1246
00:10:48 10 1011 0 2 0 87.5 1241
00:13:50 10 1011 0 2 0 86.9 1240
00:16:52 10 1011 0 6 0 85.7 1254
00:19:49 10 1012 0 5 0 85.1 1269
00:22:49 10 1011 0 1 0 85.1 1260
00:25:50 10 1011 0 1 0 85.2 1252
00:28:49 10 1012 0 0 0 85.3 1252
00:31:51 10 1012 0 3 0 85.5 1258
00:34:50 10 1011 0 4 0 85.8 1263
00:37:50 10 1012 0 1 0 85.9 1262
00:40:50 10 1012 0 5 0 85.8 1241
00:43:52 10 1012 0 5 0 85.9 1230
00:46:50 10 1012 0 3 0 87 1241
00:49:52 10 1012 0 6 0 87.2 1235
00:52:48 10 1012 0 1 0 87.1 1224
00:55:52 10 1012 0 0 0 87.6 1210
00:58:50 10 1012 0 1 0 87.8 1198
01:01:51 10 1012 0 1 0 87.9 1181
01:04:50 10 1012 0 5 0 88 1180
01:07:52 10 1013 0 3 0 88.2 1191
01:10:50 10 1013 0 3 0 87.9 1192
01:13:49 10 1013 0 1 0 87.9 1175
01:16:51 10 1013 0 1 0 88.1 1179
01:19:49 10 1013 0 2 0 88.1 1164
01:22:51 9 1013 0 5 0 89 1156
01:25:51 9 1013 0 2 0 89.9 1146
01:28:49 9 1013 0 4 0 90.3 1153
01:31:49 9 1012 0 0 0 90.6 1164
01:34:49 9 1012 0 2 0 90.8 1175
01:37:50 9 1013 0 9 0 90.6 1179
01:40:51 9 1013 0 4 0 90.5 1166
01:43:49 9 1013 0 13 0 90.5 1168
01:46:49 9 1012 0 1 0 91 1168
01:49:51 9 1012 0 2 0 90.9 1157
01:52:48 9 1013 0 0 0 91.4 1132
01:55:51 9 1013 0 4 0 92.2 1123
01:58:51 9 1013 0 17 0 92.9 1129
02:01:51 9 1013 0 5 0 93.7 1115
02:04:48 9 1013 0 4 0 93.7 1123
02:07:53 9 1013 0 5 0 94.1 1129
02:10:49 9 1013 0 4 0 94.2 1103
02:13:48 9 1013 0 4 0 94.4 1082
02:16:50 9 1012 0 5 0 95 1075
02:19:51 9 1013 0 3 0 95.2 1095
02:22:52 9 1013 0 2 0 95.3 1092
02:25:49 9 1013 0 0 0 95.1 1111
02:28:50 9 1013 0 1 0 95.1 1115
02:31:51 9 1013 0 2 0 95.3 1099
02:34:50 9 1013 0 0 0 95.8 1096
02:37:49 8 1013 0 10 0 95.3 1103
02:40:50 8 1013 0 3 0 96.2 1091
02:43:49 8 1013 0 12 0 96.1 1072
02:46:49 8 1012 0 2 0 96 1074
02:49:50 8 1012 0 6 0 95.9 1096
02:52:50 8 1013 0 6 0 95.9 1095
02:55:50 8 1013 0 5 0 96.1 1087
02:58:49 8 1012 0 3 0 96.3 1055
03:01:51 8 1012 0 3 0 96.4 1055
03:04:50 8 1013 0 5 0 96.6 1074
03:07:50 8 1012 0 4 0 96.6 1098
03:10:51 8 1013 0 0 0 96.6 1100
03:13:49 8 1012 0 0 0 96.6 1081
03:16:50 8 1013 0 1 0 96.5 1066
03:19:49 8 1012 0 4 0 96.4 1051
03:22:48 8 1013 0 7 0 95.5 1051
03:25:49 8 1013 0 5 0 94.3 1050
03:28:50 8 1013 0 2 0 93.5 1035
03:31:49 8 1013 0 3 0 92.9 1044
03:34:51 8 1013 0 4 0 93 1058
03:37:51 8 1013 0 2 0 93.3 1084
03:40:51 8 1013 0 3 0 93.5 1071
03:43:48 8 1013 0 4 0 93.6 1036
03:46:50 8 1013 0 10 0 94.3 992
03:49:49 8 1013 0 1 0 94.8 997
03:52:50 8 1013 0 3 0 95 994
03:55:50 8 1013 0 0 0 95.6 1004
03:58:50 8 1013 0 3 0 96 988
04:01:49 8 1013 0 0 0 96.3 981
04:04:50 8 1013 0 3 0 96.1 1000
04:07:49 8 1013 0 5 0 96.6 997
04:10:51 8 1013 0 4 0 96.6 989
04:13:49 8 1012 0 2 0 96.6 969
04:16:49 8 1013 0 5 0 96.6 980
04:19:54 8 1013 0 0 0 96.6 981
04:22:52 8 1012 0 0 0 96.6 985
04:25:50 8 1013 0 0 0 96.6 986
04:28:47 8 1012 0 1 0 96.6 995
04:31:50 8 1012 0 1 0 96.6 1002
04:34:49 8 1013 0 0 0 96.6 1026
04:37:48 8 1012 0 0 0 96.6 1017
04:40:50 7 1013 0 0 0 96.6 1017
04:43:47 7 1013 0 1 0.2575 96.6 1017
04:46:48 7 1013 0 0 0 96.6 1011
04:49:49 7 1013 0 1 0 96.6 1012
04:52:48 7 1013 0 4 0 96.6 1025
04:55:49 7 1013 0 0 0 96.6 1050
04:58:50 7 1013 0 2 0 96.6 1039
05:01:50 7 1013 0 4 0 96.6 1025
05:04:49 7 1013 0 3 0 96.6 1011
05:07:49 7 1013 0 2 0 96.6 999
05:10:48 7 1013 0 1 0 96.6 998
05:13:48 7 1013 0 0 0 96.6 1025
05:16:49 7 1013 0 0 0 96.6 1032
05:19:49 7 1013 0 2 0 96.6 1009
05:22:50 7 1013 0 0 0 96.6 1005
05:25:49 7 1013 0 1 0 96.6 1008
05:28:50 7 1013 0 2 0 96.6 1028
05:31:49 7 1013 0 3 0 96.6 1029
05:34:49 7 1013 0 3 0 96.6 1018
05:37:48 7 1013 0 1 0 96.6 1011
05:40:48 7 1013 0 2 0 96.6 1002
05:43:48 7 1013 0 2 0 96.6 982
05:46:50 7 1013 0 2 0 96.6 979
05:49:50 7 1013 0 0 0 96.6 988
05:52:51 7 1012 0 0 0 96.6 992
05:55:49 7 1013 0 0 0 96.6 981
05:58:50 7 1013 0 1 0 96.6 978
06:01:51 7 1013 0 2 0 96.6 996
06:04:51 7 1013 0 1 0 96.6 992
06:07:50 7 1013 0 3 0 96.6 972
06:10:49 7 1013 0 3 0 96.6 960
06:13:50 7 1013 0 2 0 96.6 965
06:16:48 7 1013 0 0 0 96.6 979
06:19:47 7 1013 0 1 0 96.6 994
06:22:50 7 1013 0 2 0 96.6 983
06:25:50 7 1013 0 2 0 96.6 980
06:28:50 7 1013 0 3 0 96.6 974
06:31:51 7 1013 0 1 0 96.6 968
06:34:52 7 1013 0 5 0 96.6 950
06:37:49 7 1013 0 4 0 96.6 949
06:40:47 7 1013 0 4 0 96.6 951
06:43:50 7 1013 0 3 0 96.6 952
06:46:50 7 1013 0 2 0 96.6 940
06:49:48 7 1013 0 3 0 96.6 932
06:52:50 7 1013 3 3 0 96.6 926
06:55:48 7 1013 5 4 0 96.6 928
06:58:48 7 1013 7 3 0 96.6 932
07:01:53 7 1013 10 3 0 96.6 947
07:04:50 7 1013 12 3 0 96.6 949
07:07:49 7 1013 19 5 0 96.6 949
07:10:50 7 1013 26 3 0 96.6 931
07:13:52 7 1013 34 3 0 96.6 929
07:16:49 7 1013 42 7 0 96.6 947
07:19:51 7 1013 45 8 0 96.6 950
07:22:48 7 1013 52 4 0 96.6 941
07:25:49 7 1013 59 3 0 96.6 930
07:28:50 7 1013 70 0 0 96.6 937
07:31:48 7 1013 75 3 0 96.6 949
07:34:49 7 1013 78 5 0 96.6 946
07:37:48 7 1013 77 2 0 96.6 930
07:40:52 7 1013 78 1 0 96.6 932
07:43:50 7 1013 83 5 0 96.6 932
07:46:50 7 1013 89 3 0 96.6 941
07:49:51 7 1013 96 4 0 96.6 952
07:52:49 7 1014 100 3 0 96.6 950
07:55:50 7 1013 108 5 0 96.6 949
07:58:48 7 1013 117 4 0 96.6 951
08:01:50 7 1014 108 4 0 96.6 956
08:04:51 7 1014 105 1 0 96.6 941
08:07:49 7 1014 103 3 0 96.6 961
08:10:52 7 1014 97 3 0 96.6 979
08:13:51 7 1014 95 0 0 96.6 1007
08:16:50 7 1014 97 0 0 96.6 1009
08:19:53 7 1014 100 1 0 96.6 1035
08:22:50 7 1014 104 1 0 96.6 1043
08:25:51 7 1014 114 7 0 96.6 1043
08:28:50 7 1014 134 6 0 96.6 1037
08:31:52 7 1014 146 5 0 96.6 1046
08:34:49 6 1014 158 6 0 96.6 1051
08:37:54 7 1015 168 5 0 96.6 1054
08:40:50 7 1014 173 4 0 96.6 1039
08:43:51 7 1014 178 5 0 96.6 1043
08:46:51 7 1014 184 4 0 96.6 1072
08:49:52 7 1015 190 4 0 96.6 1099
08:52:50 7 1015 194 1 0 96.6 1129
08:55:49 7 1015 191 4 0 96.6 1154
08:58:51 7 1015 187 5 0 96.6 1153
09:01:51 7 1016 187 4 0 96.6 1132
09:04:52 7 1015 190 4 0 96.6 1108
09:07:51 7 1015 194 2 0 96.6 1120
09:10:49 7 1015 196 4 0 96.5 1121
09:13:50 7 1015 195 4 0 96.4 1148
09:16:51 7 1016 194 4 0 96 1163
09:19:51 7 1016 194 5 0 96 1157
09:22:51 7 1016 193 3 0 95.9 1146
09:25:52 7 1015 189 3 0 95.6 1139
09:28:51 7 1015 183 4 0 96 1105
09:31:49 7 1015 182 4 0 95.9 1092
09:34:49 7 1015 190 9 0 95.6 1087
09:37:53 7 1015 190 3 0 95.8 1087
09:40:51 7 1015 190 2 0 95.8 1081
09:43:51 7 1015 195 6 0 95.9 1079
09:46:50 7 1016 196 5 0 95.7 1067
09:49:51 7 1015 200 4 0 95.5 1059
09:52:50 7 1015 201 3 0 95.2 1052
09:55:51 7 1015 200 5 0 95.4 1048
09:58:53 7 1015 201 2 0 95.1 1058
10:01:51 7 1014 204 3 0 95 1068
10:04:49 7 1015 207 2 0 94.7 1063
10:07:51 7 1015 210 3 0 94.3 1053
10:10:49 7 1015 210 4 0 94.2 1043
10:13:52 7 1015 209 2 0 94.3 1037
10:16:50 7 1016 208 3 0 94 1035
10:19:50 7 1015 208 5 0 94 1052
10:22:50 7 1015 210 4 0 93.3 1048
10:25:51 7 1015 212 3 0 92.7 1031
10:28:51 7 1015 214 2 0 92.7 1013
10:31:48 7 1015 214 4 0 93.1 1017
10:34:50 8 1014 214 2 0 93.2 1031
10:37:52 8 1015 213 5 0 93.1 1023
10:40:51 8 1015 216 5 0 92.1 1013
10:43:49 8 1015 220 7 0 91.9 1004
10:46:50 8 1016 221 3 0 91.6 1011
10:49:50 8 1016 219 5 0 91.4 1012
10:52:51 8 1015 217 5 0 91 1011
10:55:51 8 1015 216 7 0 90.9 1001
10:58:49 8 1016 212 7 0 90.1 999
11:01:52 8 1016 207 7 0 89 981
11:04:50 8 1015 206 7 0 89.6 1000
11:07:52 8 1015 207 4 0 89.7 991
11:10:50 8 1016 211 5 0 89.5 985
11:13:52 8 1015 213 5 0 89.9 980
11:16:51 8 1015 209 10 0 89.5 996
11:19:49 8 1016 208 4 0 89 986
11:22:51 8 1014 213 6 0 89 964
11:25:50 8 1016 215 4 0 88.9 956
11:28:50 8 1016 214 6 0 89.9 969
11:31:52 8 1015 219 6 0 90.3 967
11:34:50 8 1016 219 4 0 89.6 970
11:37:52 8 1015 215 5 0 89 957
11:40:50 8 1015 216 2 0 89.1 957
11:43:51 8 1016 217 7 0 88.9 962
11:46:49 8 1016 216 6 0 87.8 957
11:49:49 8 1015 217 4 0 87.6 947
11:52:51 8 1016 216 2 0 87.8 949
11:55:49 8 1015 215 5 0 87.3 940
11:58:51 8 1016 216 6 0 85.9 929
12:01:49 8 1016 220 3 0 86.2 911
12:04:52 8 1015 222 3 0 85.8 935
12:07:52 8 1016 222 5 0 86.1 934
12:10:50 9 1015 218 5 0 86.9 917
12:13:52 9 1015 220 9 0 86.7 909
12:16:51 9 1015 223 6 0 86.1 909
12:19:49 9 1015 218 5 0 85.6 912
12:22:53 9 1016 213 7 0 85 922
12:25:49 9 1016 217 3 0 84.6 940
12:28:50 9 1015 219 3 0 85.5 937
12:31:50 9 1015 223 3 0 85.4 937
12:34:49 9 1016 225 5 0 85.7 922
12:37:50 9 1016 228 5 0 84.5 915
12:40:50 9 1016 228 3 0 84.8 907
12:43:50 9 1016 227 5 0 83.6 906
12:46:50 9 1015 228 5 0 82.2 899
12:49:53 10 1017 229 5 0 81 888
12:52:50 10 1015 232 9 0 80.5 882
12:55:50 10 1015 230 8 0 80.1 856
12:58:52 10 1015 229 8 0 77.7 848
13:01:51 10 1015 226 6 0 76.2 855
13:04:52 10 1015 228 5 0 76.1 861
13:07:49 10 1016 230 4 0 77 858
13:10:52 10 1015 230 4 0 76.6 856
13:13:51 11 1016 230 12 0 75.7 855
13:16:50 11 1015 224 2 0 74.2 855
13:19:52 11 1016 229 11 0 72.8 853
13:22:50 11 1015 221 3 0 71.6 850
13:25:52 11 1015 229 6 0 72.5 846
13:28:50 10 1015 227 8 0 72.2 846
13:31:52 10 1015 227 5 0 69.9 839
13:34:51 10 1015 231 19 0 68.9 831
13:37:53 10 1016 230 8 0 69.8 828
13:40:51 10 1015 227 18 0 70.4 842
13:43:49 10 1015 227 12 0 69.1 843
13:46:50 10 1015 223 11 0 70.5 834
13:49:49 10 1015 223 6 0 71 833
13:52:51 10 1014 228 9 0 72 826
13:55:52 10 1015 223 6 0 71.9 824
13:58:50 10 1015 226 13 0 72.6 821
14:01:50 10 1015 226 10 0 71.2 824
14:04:51 10 1015 222 15 0 68.3 823
14:07:50 10 1015 221 4 0 68.8 817
14:10:49 10 1016 242 9 0 69.1 812
14:13:48 10 1015 215 11 0 70.1 808
14:16:50 10 1015 217 4 0 68.4 806
14:19:50 10 1015 213 9 0 67.6 804
14:22:50 9 1015 228 5 0 67.7 797
14:25:50 9 1015 245 2 0 70.7 794
14:28:52 10 1014 245 10 0 68.7 805
14:31:51 11 1015 245 5 0 63.1 824
14:34:50 12 1015 226 34 0 59.6 829
14:37:53 11 1016 213 3 0 60.5 820
14:40:49 11 1015 215 12 0 61.1 822
14:43:50 11 1014 217 3 0 63.1 822
14:46:51 10 1016 223 6 0 63.3 814
14:49:53 10 1015 230 7 0 63.2 820
14:52:50 10 1015 246 5 0 63.6 819
14:55:51 11 1015 246 9 0 63.6 826
14:58:50 11 1015 246 1 0 64.1 833
15:01:34 11 1014 246 6 0 56.2 843
15:04:51 11 1014 246 32 0 56.6 843
15:07:52 11 1014 246 19 0 56.8 833
15:10:51 11 1015 235 8 0 59 846
15:13:51 10 1015 216 5 0 60.2 850
15:16:52 10 1014 212 10 0 60.6 838
15:19:49 10 1014 215 3 0 61 829
15:22:52 10 1014 221 4 0 62.3 830
15:25:50 9 1015 240 6 0 62.2 820
15:28:52 9 1015 240 0 0 65.6 824
15:31:51 10 1015 230 3 0 64.2 831
15:34:50 10 1014 228 6 0 63.7 826
15:37:52 10 1015 227 12 0 63.1 823
15:40:50 10 1014 225 7 0 62.6 820
15:43:49 9 1014 219 4 0 63.5 824
15:46:50 9 1015 214 3 0 63.6 822
15:49:50 9 1015 219 2 0 65 824
15:52:51 9 1015 222 2 0 66.2 828
15:55:51 9 1015 220 4 0 66.4 827
15:58:51 9 1015 215 2 0 66.6 829
16:01:50 9 1015 219 4 0 67.6 823
16:04:52 9 1016 226 5 0 68.5 814
16:07:51 9 1015 225 2 0 68.1 822
16:10:49 9 1015 226 4 0 67.7 823
16:13:52 9 1015 227 4 0 67 826
16:16:52 9 1015 220 2 0 66.2 821
16:19:52 10 1014 223 6 0 65 824
16:22:50 10 1014 223 5 0 63.9 811
16:25:50 9 1015 203 4 0 64.4 809
16:28:50 9 1015 204 2 0 64.6 809
16:31:50 9 1015 211 7 0 64.6 811
16:34:48 9 1015 212 2 0 65.1 814
16:37:49 9 1015 207 3 0 66 805
16:40:51 8 1016 213 4 0 67.1 811
16:43:50 8 1014 223 4 0 67.9 811
16:46:48 8 1016 213 3 0 68.4 810
16:49:51 8 1015 216 3 0 68.9 815
16:52:49 8 1014 205 6 0 69.1 811
16:55:51 8 1014 204 6 0 69.1 815
16:58:51 8 1015 205 1 0 69.2 817
17:01:47 8 1015 203 7 0 68.6 814
17:04:49 8 1016 202 2 0 69.6 801
17:07:50 8 1015 195 5 0 70.2 803
17:10:50 8 1015 194 4 0 70.4 813
17:13:49 7 1015 192 3 0 70.9 814
17:16:48 7 1014 189 4 0 71.6 814
17:19:48 7 1015 185 4 0 72.1 814
17:22:50 7 1015 184 2 0 72.6 818
17:25:50 7 1015 182 2 0 72.9 826
17:28:50 7 1015 178 3 0 73.4 835
17:31:49 7 1015 174 2 0 73.8 835
17:34:50 7 1014 166 3 0 74 837
17:37:50 7 1015 158 0 0 74.6 838
17:40:49 7 1016 144 2 0 75.1 834
17:43:50 7 1015 127 0 0 75.5 833
17:46:51 6 1016 113 0 0 76.2 838
17:49:51 6 1015 108 3 0 76.4 839
17:52:50 6 1016 99 1 0 76.8 838
17:55:51 6 1016 76 4 0 77.3 828
17:58:48 6 1017 54 1 0 77.4 823
18:01:51 6 1016 36 2 0 77.3 818
18:04:50 6 1016 26 4 0 76.7 820
18:07:50 6 1016 19 4 0 76.8 824
18:10:50 6 1016 13 1 0 76.8 819
18:13:47 6 1016 9 4 0 77 811
18:16:49 6 1016 6 1 0 77.2 814
18:19:49 6 1016 3 1 0 77.3 805
18:22:48 6 1016 0 1 0 77.2 811
18:25:49 6 1016 0 3 0 77.4 805
18:28:48 6 1017 0 2 0 77.9 803
18:31:50 6 1016 0 3 0 77.9 805
18:34:49 6 1017 0 1 0 77.9 813
18:37:47 6 1017 0 3 0 77.7 814
18:40:50 6 1016 0 3 0 78.1 821
18:43:50 6 1017 0 1 0 78.2 818
18:46:50 7 1017 0 5 0 77.9 823
18:49:49 7 1017 0 0 0 77.9 826
18:52:49 7 1017 0 2 0 77.9 818
18:55:47 7 1017 0 2 0 78.1 816
18:58:51 7 1017 0 1 0 78.1 806
19:01:48 7 1017 0 3 0 78 811
19:04:48 7 1017 0 3 0 77.9 815
19:07:50 7 1016 0 7 0 78.3 816
19:10:48 7 1017 0 1 0 78 785
19:13:47 7 1017 0 1 0 77.5 762
19:16:49 7 1017 0 4 0 77.9 768
19:19:49 7 1017 0 2 0 77.8 779
19:22:49 7 1017 0 3 0 77.8 785
19:25:49 7 1017 0 3 0 78.1 783
19:28:49 7 1016 0 3 0 78.2 783
19:31:52 7 1016 0 1 0 78.4 768
19:34:47 7 1017 0 0 0 78.3 776
19:37:50 7 1017 0 2 0 79 771
19:40:48 7 1017 0 2 0 79.4 771
19:43:48 6 1017 0 2 0 78.9 762
19:46:50 6 1017 0 0 0 79.2 716
19:49:47 6 1017 0 0 0 79.4 439
19:52:51 6 1017 0 3 0 79.9 431
19:55:50 6 1017 0 2 0 80.1 495
19:58:51 6 1017 0 2 0 80.8 529
20:01:51 6 1017 0 2 0 80.9 536
20:04:48 6 1017 0 3 0 80.7 526
20:07:49 6 1017 0 3 0 81 513
20:10:51 6 1017 0 2 0 81.2 551
20:13:49 6 1017 0 2 0 81.4 556
20:16:50 6 1017 0 3 0 81.4 562
20:19:50 6 1017 0 2 0 81.4 574
20:22:48 6 1017 0 3 0 80.7 595
20:25:53 6 1017 0 4 0 80.8 619
20:28:49 6 1017 0 5 0 81.1 633
20:31:51 6 1017 0 2 0 81.1 639
20:34:48 6 1017 0 6 0 80.9 654
20:37:49 6 1017 0 4 0 80.9 661
20:40:49 6 1017 0 6 0 80.9 674
20:43:49 6 1017 0 4 0 81.1 682
20:46:49 6 1017 0 9 0 81.2 695
20:49:48 6 1017 0 3 0 81.5 705
20:52:49 6 1017 0 3 0 81.2 714
20:55:49 6 1017 0 4 0 81.7 722
20:58:50 6 1017 0 4 0 81.8 720
21:01:48 6 1017 0 7 0 81.9 732
21:04:49 6 1017 0 4 0 82.6 742
21:07:49 6 1017 0 6 0 83.1 748
21:10:47 6 1017 0 4 0 83.4 750
21:13:47 6 1017 0 3 0 83.7 754
21:16:47 6 1017 0 5 0 83.8 762
21:19:47 6 1017 0 5 0 84.3 764
21:22:49 6 1017 0 4 0 84.6 764
21:25:47 6 1018 0 3 0 84.7 762
21:28:49 6 1017 0 3 0 84.9 783
21:31:48 6 1017 0 6 0 85.1 794
21:34:48 6 1017 0 3 0 85.4 801
21:37:49 6 1017 0 2 0 85.5 811
21:40:47 5 1017 0 3 0 85.6 815
21:43:47 5 1017 0 7 0 85.6 824
21:46:50 5 1018 0 4 0 86.1 814
21:49:50 5 1017 0 2 0 86.3 806
21:52:47 5 1017 0 2 0 86.4 796
21:55:48 5 1017 0 3 0 87.2 794
21:58:48 5 1017 0 1 0 87.8 803
22:01:50 4 1017 0 3 0 88.2 816
22:04:50 4 1018 0 0 0 88.2 824
22:07:52 4 1017 0 1 0 88.4 836
22:10:50 4 1017 0 1 0 90.6 838
22:13:49 4 1017 0 3 0 91.2 843
22:16:48 4 1017 0 3 0 91.4 842

Letzte Änderung : 31-Dez-2020
Copyright Jens Köhler, Wolfsburg, Obere Dorfstraße 10d